[[{"header":{"parameterUnit":"m.s-1","parameterCategory":1,"la1":30.2991,"la2":30.254,"lo1":-89.0895,"lo2":-89.0444,"dy":0.0017,"dx":0.0017,"nx":28,"ny":28,"refTime":"2025-05-15T09:00:00:Z","depth":0,"parameterNumber":2,"parameterNumberName":"U-component_of_WINDS"},"data":[0,0,0,0,0,0,0,0,0,0,0,0,0,0,0,0,0,0,0,0,0,0,0,0,0,0,0,0,0,0,0,0,0,0,0,0,0,0,0,0,0,0,0,0,0,0,0,0,0,0,0,0,0,0,0,0,0,0,-0.633,-0.633,0,-0.6275,-0.6274,-0.6274,-0.6259,-0.6259,-0.626,-0.626,-0.6202,-0.62,-0.6198,0,0,0,0,0,0,0,0,0,0,0,0,0,-0.6423,-0.6421,-0.6331,-0.633,-0.6329,-0.6275,-0.6274,-0.6274,-0.6259,-0.6259,-0.626,-0.626,-0.6202,-0.62,-0.6198,0,0,0,0,0,0,0,0,0,0,0,0,0,-0.6376,-0.6421,-0.6331,-0.6315,-0.6313,-0.6275,-0.6274,-0.6273,-0.6259,-0.6259,-0.626,-0.626,-0.6203,-0.62,-0.6197,-0.617,0,0,-0.6189,-0.6188,0,0,0,0,0,0,0,0,-0.6379,-0.6373,-0.6318,-0.6316,-0.6314,-0.6274,-0.6285,-0.6239,-0.6259,-0.6279,-0.626,-0.6261,-0.6225,-0.6221,-0.6209,-0.6167,-0.6165,-0.6189,-0.6187,-0.6186,-0.6185,0,0,0,0,0,0,0,-0.6382,-0.6375,-0.6309,-0.6318,-0.6315,-0.6311,-0.6305,-0.6276,-0.625,-0.6278,-0.6277,-0.627,-0.6224,-0.6212,-0.6208,-0.6164,-0.6189,-0.6186,-0.6184,-0.6183,-0.6096,-0.6096,0,0,0,0,0,0,-0.6388,-0.6378,-0.631,-0.6307,-0.6349,-0.6309,-0.6302,-0.6287,-0.625,-0.6245,-0.627,-0.627,-0.6216,-0.6211,-0.6206,-0.617,-0.6186,-0.6183,-0.6182,-0.6097,-0.6096,-0.6095,0,0,0,0,0,0,-0.639,-0.6382,-0.6313,-0.6342,-0.6333,-0.6307,-0.6289,-0.6285,-0.6273,-0.6245,-0.624,-0.6262,-0.6217,-0.6209,-0.6179,-0.6168,-0.6182,-0.6179,-0.6098,-0.6097,-0.6096,-0.6101,0,0,0,0,0,0,-0.6393,-0.6383,-0.6373,-0.6342,-0.6331,-0.6287,-0.6289,-0.6284,-0.6268,-0.6268,-0.6236,-0.6231,-0.6216,-0.6183,-0.6176,-0.6165,-0.6177,-0.6098,-0.6097,-0.6096,-0.6101,-0.61,-0.6099,0,0,0,0,0,-0.6396,-0.6376,-0.6372,-0.6364,-0.6318,-0.6287,-0.6281,-0.6264,-0.6268,-0.6257,-0.6238,-0.6232,-0.6171,-0.618,-0.6172,-0.616,-0.6099,-0.6098,-0.6096,-0.6102,-0.61,-0.6099,0,0,0,0,0,0,-0.6406,-0.6372,-0.6367,-0.6337,-0.6315,-0.6284,-0.627,-0.6263,-0.624,-0.624,-0.6221,-0.6214,-0.6184,-0.6169,-0.618,-0.6131,-0.6135,-0.6132,-0.6142,-0.614,-0.6139,-0.6143,-0.6175,0,0,0,0,0,-0.6405,-0.6383,-0.6354,-0.633,-0.6319,-0.6296,-0.6282,-0.6272,-0.6248,-0.6239,-0.6218,-0.6195,-0.617,-0.6155,-0.613,-0.6099,-0.6092,-0.6087,-0.6086,-0.6085,-0.6082,-0.6064,-0.6061,-0.6091,-0.6091,-0.6091,0,0,-0.6402,-0.638,-0.6367,-0.6331,-0.6313,-0.629,-0.6289,-0.6264,-0.6247,-0.6235,-0.6204,-0.6189,-0.6162,-0.6131,-0.6116,-0.6117,-0.6072,-0.6083,-0.6082,-0.608,-0.6062,-0.6059,-0.6057,-0.609,-0.609,-0.609,0,0,-0.6384,-0.6366,-0.6343,-0.6325,-0.6298,-0.6283,-0.6277,-0.6248,-0.6237,-0.6207,-0.6197,-0.6176,-0.6134,-0.6115,-0.61,-0.6075,-0.6068,-0.6068,-0.6061,-0.6043,-0.6041,-0.6039,-0.6029,-0.6026,-0.6065,-0.6065,-0.6065,0,-0.6383,-0.6348,-0.6332,-0.6308,-0.6292,-0.6281,-0.6257,-0.6241,-0.6207,-0.6196,-0.6198,-0.6145,-0.6126,-0.609,-0.6084,-0.6072,-0.6065,-0.6071,-0.6043,-0.604,-0.6038,-0.6028,-0.6025,-0.6065,-0.6065,-0.6065,-0.6065,0,-0.6348,-0.6324,-0.6309,-0.6277,-0.6259,-0.6236,-0.6216,-0.62,-0.6191,-0.6176,-0.6145,-0.6122,-0.6093,-0.6084,-0.6075,-0.6046,-0.6048,-0.6047,-0.605,-0.6035,-0.6026,-0.6022,-0.6065,-0.6065,-0.6065,-0.6065,0,0,-0.6334,-0.6294,-0.6288,-0.6273,-0.6242,-0.6223,-0.6199,-0.6171,-0.6157,-0.6134,-0.6113,-0.6078,-0.6077,-0.606,-0.6049,-0.6033,-0.6014,-0.6034,-0.6033,-0.603,-0.5981,-0.5981,-0.5977,-0.601,-0.6009,-0.6009,-0.5983,0,-0.6312,-0.6268,-0.6253,-0.6217,-0.6195,-0.6183,-0.6162,-0.6141,-0.6126,-0.6105,-0.6088,-0.6064,-0.6064,-0.6054,-0.6038,-0.602,-0.6004,-0.6022,-0.5989,-0.5988,-0.5995,-0.5972,-0.5973,-0.5949,-0.5979,-0.5978,-0.5978,0,-0.628,-0.6256,-0.6218,-0.6189,-0.6179,-0.6161,-0.6133,-0.6113,-0.6088,-0.6079,-0.606,-0.605,-0.6024,-0.603,-0.5993,-0.6006,-0.5992,-0.5981,-0.5979,-0.5975,-0.5981,-0.5966,-0.5941,-0.5937,-0.5972,-0.5973,-0.5973,0,-0.6272,-0.6231,-0.6203,-0.619,-0.6157,-0.6144,-0.6129,-0.6105,-0.6089,-0.6065,-0.6054,-0.6028,-0.6013,-0.5993,-0.5976,-0.5982,-0.594,-0.5945,-0.5931,-0.5931,-0.5922,-0.5922,-0.5893,-0.5915,-0.5915,-0.5915,-0.5915,0,-0.6248,-0.6225,-0.6199,-0.6181,-0.6155,-0.6138,-0.6112,-0.6097,-0.6075,-0.6054,-0.6043,-0.6024,-0.6003,-0.5981,-0.5967,-0.5939,-0.5932,-0.5923,-0.592,-0.5923,-0.5924,-0.5913,-0.5914,-0.5914,-0.5914,-0.5914,-0.5914,0,-0.6234,-0.6216,-0.6184,-0.6155,-0.6147,-0.6129,-0.6104,-0.6086,-0.6071,-0.6045,-0.6038,-0.6014,-0.5987,-0.5969,-0.5934,-0.5925,-0.5894,-0.5891,-0.5902,-0.59,-0.5887,-0.5888,-0.5848,-0.5842,-0.5869,-0.5869,-0.5869,0,-0.622,-0.6201,-0.617,-0.6155,-0.6141,-0.6117,-0.6101,-0.6083,-0.6067,-0.6037,-0.6023,-0.5995,-0.5972,-0.593,-0.5909,-0.5883,-0.5879,-0.5867,-0.5875,-0.5879,-0.5877,-0.5878,-0.5876,-0.5865,-0.5865,-0.5865,-0.5865,0,-0.6195,-0.6187,-0.6164,-0.6137,-0.6118,-0.6096,-0.6074,-0.6063,-0.6042,-0.6024,-0.5996,-0.5978,-0.5943,-0.5916,-0.5887,-0.5872,-0.5864,-0.5863,-0.5858,-0.5861,-0.5867,-0.5863,-0.5898,-0.5863,-0.5863,-0.5863,-0.5863,-0.5864,-0.618,-0.6163,-0.6138,-0.6112,-0.6094,-0.6074,-0.6056,-0.6039,-0.6016,-0.5986,-0.5977,-0.5948,-0.5924,-0.5885,-0.5869,-0.5846,-0.5847,-0.584,-0.5838,-0.5836,-0.5836,-0.5872,-0.5841,-0.5841,-0.5841,-0.5841,-0.5841,0,-0.6153,-0.6137,-0.6114,-0.6083,-0.6063,-0.6059,-0.6035,-0.6018,-0.5993,-0.5971,-0.5948,-0.5916,-0.589,-0.5868,-0.584,-0.5826,-0.5822,-0.5819,-0.5819,-0.5816,-0.5837,-0.5844,-0.5823,-0.5823,-0.5823,-0.5823,-0.5823,-0.5823,-0.6137,-0.6108,-0.6097,-0.6059,-0.6043,-0.6014,-0.6001,-0.5982,-0.5964,-0.5929,-0.5907,-0.5893,-0.5871,-0.5841,-0.5817,-0.5811,-0.5801,-0.5799,-0.5792,-0.5812,-0.5814,-0.5816,-0.5822,-0.5797,-0.5797,-0.5772,-0.5772,-0.5772]},{"header":{"parameterUnit":"m.s-1","parameterCategory":1,"la1":30.2991,"la2":30.254,"lo1":-89.0895,"lo2":-89.0444,"dy":0.0017,"dx":0.0017,"nx":28,"ny":28,"refTime":"2025-05-15T09:00:00:Z","depth":0,"parameterNumber":3,"parameterNumberName":"V-component_of_WINDS"},"data":[0,0,0,0,0,0,0,0,0,0,0,0,0,0,0,0,0,0,0,0,0,0,0,0,0,0,0,0,0,0,0,0,0,0,0,0,0,0,0,0,0,0,0,0,0,0,0,0,0,0,0,0,0,0,0,0,0,0,4.6708,4.6708,0,4.6702,4.6702,4.6702,4.6668,4.6668,4.6667,4.6666,4.6653,4.6654,4.6654,0,0,0,0,0,0,0,0,0,0,0,0,0,4.6687,4.6688,4.6708,4.6708,4.6708,4.6702,4.6702,4.6702,4.6669,4.6668,4.6667,4.6666,4.6653,4.6653,4.6654,0,0,0,0,0,0,0,0,0,0,0,0,0,4.669,4.6688,4.6708,4.6691,4.6689,4.6702,4.6702,4.6702,4.6669,4.6668,4.6666,4.6665,4.6653,4.6653,4.6654,4.6681,0,0,4.6656,4.6656,0,0,0,0,0,0,0,0,4.669,4.6691,4.6693,4.6692,4.669,4.6685,4.669,4.6694,4.6669,4.6676,4.6666,4.6665,4.6664,4.6664,4.6665,4.668,4.6679,4.6656,4.6656,4.6656,4.6656,0,0,0,0,0,0,0,4.669,4.6691,4.6705,4.6693,4.6691,4.6682,4.6681,4.669,4.6677,4.6676,4.6673,4.6673,4.6663,4.6664,4.6664,4.6679,4.6656,4.6656,4.6657,4.6657,4.672,4.6722,0,0,0,0,0,0,4.6693,4.6691,4.6705,4.6705,4.6687,4.6684,4.6683,4.6688,4.6676,4.6674,4.6674,4.6672,4.6664,4.6664,4.6664,4.6697,4.6656,4.6657,4.6657,4.6719,4.6721,4.6722,0,0,0,0,0,0,4.6692,4.6694,4.6706,4.6698,4.6698,4.6685,4.6691,4.6688,4.669,4.6676,4.6672,4.6679,4.6663,4.6663,4.6678,4.6696,4.6657,4.6658,4.6717,4.6719,4.6721,4.6763,0,0,0,0,0,0,4.6692,4.6694,4.6705,4.6698,4.6699,4.6721,4.6692,4.6689,4.6691,4.6688,4.6679,4.6676,4.6662,4.6678,4.6679,4.6696,4.6658,4.6716,4.6718,4.6721,4.676,4.6766,4.6771,0,0,0,0,0,4.6691,4.6714,4.6706,4.6708,4.6712,4.6722,4.6723,4.6708,4.6693,4.6703,4.6695,4.6676,4.6694,4.6679,4.668,4.6698,4.6714,4.6717,4.672,4.6757,4.6765,4.6771,0,0,0,0,0,0,4.672,4.6713,4.6703,4.6725,4.6725,4.6717,4.6729,4.6716,4.6718,4.6715,4.6695,4.6693,4.6712,4.6706,4.669,4.6726,4.6701,4.6705,4.6729,4.6736,4.6742,4.6743,4.6659,0,0,0,0,0,4.673,4.674,4.6733,4.6752,4.6754,4.6742,4.6745,4.6735,4.6733,4.6732,4.6725,4.6722,4.6728,4.6731,4.6735,4.6759,4.6757,4.6772,4.6778,4.6783,4.6786,4.6801,4.6808,4.6732,4.6732,4.6732,0,0,4.6748,4.6745,4.6752,4.6758,4.6757,4.6768,4.6742,4.6753,4.6761,4.6733,4.6749,4.6743,4.6739,4.676,4.6769,4.6756,4.6807,4.6786,4.679,4.6791,4.6805,4.6812,4.6819,4.6734,4.6734,4.6733,0,0,4.6787,4.6786,4.6805,4.6805,4.6806,4.6798,4.6803,4.6798,4.6795,4.681,4.6791,4.6799,4.6808,4.6807,4.6808,4.6853,4.6837,4.6854,4.6885,4.69,4.6906,4.6911,4.693,4.6936,4.6858,4.6858,4.6858,0,4.6809,4.6827,4.6815,4.683,4.6834,4.6813,4.6832,4.6832,4.6832,4.6835,4.6822,4.6836,4.6831,4.6853,4.6865,4.6865,4.6871,4.6855,4.6907,4.6912,4.6916,4.6934,4.694,4.686,4.686,4.686,4.6859,0,4.6856,4.6869,4.6883,4.6889,4.6894,4.691,4.6901,4.6907,4.6898,4.6892,4.691,4.6904,4.6909,4.6913,4.6901,4.6935,4.6927,4.691,4.6886,4.6926,4.6942,4.6949,4.6864,4.6863,4.6862,4.6861,0,0,4.691,4.6913,4.6919,4.6923,4.6923,4.6932,4.6949,4.6956,4.6964,4.6965,4.6979,4.699,4.6976,4.6977,4.6965,4.6979,4.7019,4.6961,4.6961,4.6974,4.7058,4.7071,4.7079,4.7008,4.7009,4.701,4.7059,0,4.6951,4.6981,4.6973,4.7003,4.7016,4.6998,4.7013,4.7015,4.7011,4.702,4.7015,4.7024,4.7003,4.7005,4.7017,4.7011,4.7035,4.7007,4.7021,4.7021,4.7024,4.7087,4.71,4.7146,4.7065,4.7066,4.7066,0,4.7,4.7009,4.7042,4.7045,4.705,4.7064,4.7072,4.7081,4.7084,4.708,4.7084,4.7071,4.7088,4.7064,4.7086,4.7068,4.7073,4.7071,4.7073,4.7074,4.7047,4.7091,4.716,4.7168,4.7076,4.7075,4.7074,0,4.7041,4.706,4.7083,4.7087,4.709,4.71,4.7102,4.7103,4.711,4.7117,4.7121,4.7128,4.7132,4.7138,4.7128,4.7111,4.7153,4.7127,4.7151,4.7151,4.716,4.716,4.7233,4.7162,4.7162,4.7162,4.7162,0,4.7087,4.7108,4.7102,4.7116,4.714,4.713,4.7154,4.7153,4.7155,4.7169,4.7153,4.7166,4.7151,4.7162,4.7154,4.7176,4.7177,4.7175,4.7173,4.7177,4.7178,4.718,4.7177,4.7163,4.7163,4.7163,4.7162,0,4.7135,4.7131,4.7156,4.7159,4.7161,4.7178,4.718,4.7194,4.719,4.7208,4.7211,4.7205,4.7218,4.7209,4.7221,4.7215,4.7245,4.7237,4.7245,4.7244,4.7269,4.7267,4.7347,4.7357,4.7278,4.7279,4.728,0,4.7165,4.7182,4.7188,4.7198,4.7202,4.7217,4.7225,4.7217,4.7226,4.7233,4.7245,4.7258,4.7268,4.729,4.7285,4.7295,4.7288,4.7316,4.7289,4.7295,4.7291,4.7291,4.7294,4.7321,4.7322,4.7323,4.7323,0,4.722,4.7219,4.7232,4.7247,4.7258,4.7268,4.7276,4.7284,4.7277,4.7287,4.7303,4.7311,4.7326,4.7339,4.7348,4.7348,4.7335,4.7332,4.7338,4.7343,4.7348,4.7348,4.7261,4.733,4.7329,4.7329,4.7328,4.7328,4.7261,4.7277,4.7285,4.7302,4.7309,4.7318,4.7332,4.7333,4.7346,4.736,4.7354,4.7373,4.7377,4.7389,4.7392,4.7406,4.7394,4.7403,4.7405,4.7408,4.7413,4.7346,4.7407,4.7407,4.7406,4.7406,4.7406,0,4.7317,4.7323,4.7339,4.7354,4.7367,4.7357,4.7367,4.7379,4.7396,4.7403,4.7415,4.7434,4.7448,4.7447,4.746,4.7471,4.7466,4.7475,4.7474,4.7475,4.7421,4.7415,4.748,4.748,4.748,4.748,4.748,4.748,4.7347,4.7375,4.7376,4.7407,4.7412,4.7433,4.744,4.7449,4.7455,4.7479,4.7492,4.7492,4.7496,4.751,4.7522,4.7522,4.7528,4.754,4.7537,4.7486,4.7479,4.7472,4.7466,4.7541,4.7541,4.7591,4.7591,4.7591]}]]